Weather History for KBEH - November, 2012

Change the Weather History Date:

Friday, November 9, 2012

  Actual Average Record
Temperature  
Mean Temperature 44 °F -  
Max Temperature 57 °F 52 °F 72 °F (1999)
Min Temperature 30 °F 34 °F 13 °F (1991)
Degree Days  
Heating Degree Days 22    
Moisture  
Dew Point 38 °F    
Average Humidity 78    
Maximum Humidity 100    
Minimum Humidity 55    
Precipitation  
Precipitation 0.00 in - - ()
Sea Level Pressure  
Sea Level Pressure 30.10 in    
Wind  
Wind Speed 4 mph (SE)    
Max Wind Speed 14 mph    
Max Gust Speed -    
Visibility 4 miles    
Events Rain    
Averages and records for this station are not official NWS values.
T = Trace of Precipitation, MM = Missing Value Source: NWS Daily Summary

Daily Weather History Graph

Daily Weather History Graph

Search for Another Location

Airport or City:

Trip Planner

Search our weather history database for the weather conditions in past years. The results will help you decide how hot, cold, wet, or windy it might be!

Date:

Astronomy

Nov. 09, 2012 Rise Set
Actual Time 7:29 AM EST 5:29 PM EST
Civil Twilight 6:59 AM EST 5:59 PM EST
Nautical Twilight 6:25 AM EST 6:32 PM EST
Astronomical Twilight 5:53 AM EST 7:05 PM EST
Moon 2:22 AM EST (11/9) 2:46 PM EST (11/9)
Length of Visible Light 10h 59m
Length of Day
10h 00m
Waning Crescent, 23% of the Moon is Illuminated
Nov 9
Waning Crescent
Nov 13
New
Nov 20
First Quarter
Nov 28
Full
Dec 6
Last Quarter

Hourly Weather History & Observations

Time (EST) Temp. Windchill Dew Point Humidity Pressure Visibility Wind Dir Wind Speed Gust Speed Precip Events Conditions
12:53 AM 37.0 °F 34.5 °F 33.1 °F 86% 30.15 in 5.0 mi SSE 3.5 mph - N/A   Clear
1:53 AM 36.0 °F - 33.1 °F 89% 30.15 in 4.0 mi Calm Calm - N/A   Clear
2:53 AM 32.0 °F - 30.9 °F 96% 30.16 in 2.5 mi Calm Calm - N/A   Clear
3:06 AM 32.0 °F - 30.2 °F 93% 30.14 in 3.0 mi Calm Calm - N/A   Clear
3:16 AM 33.8 °F - 30.2 °F 87% 30.15 in 2.5 mi Calm Calm - N/A   Clear
3:53 AM 30.0 °F - 30.0 °F 100% 30.16 in 2.5 mi Calm Calm - N/A   Clear
4:53 AM 30.0 °F 26.5 °F 28.9 °F 96% 30.15 in 2.0 mi ESE 3.5 mph - N/A   Clear
5:53 AM 33.1 °F 27.7 °F 32.0 °F 96% 30.14 in 2.5 mi SE 5.8 mph - N/A   Clear
7:35 AM 35.6 °F 30.7 °F 33.8 °F 93% 30.12 in 1.5 mi SE 5.8 mph - N/A   Clear
7:53 AM 35.1 °F 29.3 °F 34.0 °F 96% 30.14 in 1.5 mi SE 6.9 mph - N/A   Clear
8:50 AM 37.4 °F 33.8 °F 35.6 °F 93% 30.14 in 2.0 mi SSE 4.6 mph - N/A   Clear
8:53 AM 37.9 °F 33.5 °F 36.0 °F 93% 30.15 in 2.0 mi SSE 5.8 mph - N/A   Clear
9:53 AM 43.0 °F 38.8 °F 37.0 °F 80% 30.14 in 2.5 mi SSE 6.9 mph - N/A   Haze
10:01 AM 44.6 °F 39.2 °F 37.4 °F 76% 30.12 in 3.0 mi SSE 10.4 mph - N/A   Haze
10:53 AM 48.0 °F - 39.0 °F 71% 30.13 in 4.0 mi SSE 8.1 mph - N/A   Haze
11:53 AM 53.1 °F - 39.9 °F 61% 30.12 in 5.0 mi SSE 9.2 mph - N/A   Haze
12:53 PM 55.9 °F - 41.0 °F 57% 30.05 in 6.0 mi ESE 13.8 mph - N/A   Haze
1:53 PM 55.9 °F - 39.9 °F 55% 30.06 in 6.0 mi South 8.1 mph - N/A   Haze
2:53 PM 57.0 °F - 41.0 °F 55% 30.05 in 6.0 mi South 6.9 mph - N/A   Haze
3:53 PM 55.9 °F - 41.0 °F 57% 30.03 in 6.0 mi SSE 5.8 mph - N/A   Haze
4:53 PM 55.0 °F - 43.0 °F 64% 30.03 in 6.0 mi ESE 3.5 mph - 0.00 in Rain Light Rain
5:53 PM 54.0 °F - 44.1 °F 69% 30.03 in 7.0 mi Calm Calm - 0.00 in   Overcast
6:53 PM 53.1 °F - 46.0 °F 77% 30.04 in 8.0 mi Calm Calm - N/A   Overcast
7:53 PM 54.0 °F - 44.1 °F 69% 30.04 in 6.0 mi SE 3.5 mph - N/A   Haze
8:53 PM 55.0 °F - 44.1 °F 67% 30.03 in 8.0 mi SE 6.9 mph - N/A   Overcast
9:53 PM 54.0 °F - 44.1 °F 69% 30.04 in 7.0 mi ESE 4.6 mph - N/A   Overcast
10:53 PM 55.0 °F - 44.1 °F 67% 30.03 in 8.0 mi SE 5.8 mph - N/A   Overcast
11:53 PM 54.0 °F - 44.1 °F 69% 30.03 in 7.0 mi ESE 4.6 mph - N/A   Overcast